Вернуться в каталог

STARLINK-35412

АктивенСвязьSSO
NORAD 65797·PAYLOAD·🇺🇸 United States

Запущен Sep 26, 2025 с Vandenberg Space Force Base

Loading…

Ближайшие Пролёты (ближайшие 24 часа)

TLE

СвежийSource: CelesTrak SupGP

Эпоха: Sep 14, 2026, 14:59 UTC

1 65797C 25218G   26257.62479167  .00003036  00000+0  94271-4 0  2571
2 65797  97.2843 115.1257 0001713  90.2846 346.8798 15.33427343    13

Отслеживайте STARLINK-35412 в реальном времени с AllMySat

Download on the App Store